[[{"header":{"parameterUnit":"m.s-1","parameterCategory":2,"la1":30.2991,"la2":30.254,"lo1":-89.0895,"lo2":-89.0444,"dy":0.0017,"dx":0.0017,"nx":28,"ny":28,"refTime":"2024-05-28T03:00:00:Z","depth":"0","parameterNumber":2,"parameterNumberName":"U-component_of_CURRENTS"},"data":[0,0,0,0,0,0,0,0,0,0,0,0,0,0,0,0,0,0,0,0,0,0,0,0,0,0,0,0,0,0,0,0,0,0,0,0,0,0,0,0,0,0,0,0,0,0,0,0,0,0,0,0,0,0,0,0,0,0,-0.2471,-0.2471,0,-0.246,-0.246,-0.246,-0.2378,-0.2376,-0.2374,-0.2372,-0.2276,-0.2275,-0.2274,0,0,0,0,0,0,0,0,0,0,0,0,0,-0.228,-0.2285,-0.2471,-0.2471,-0.2471,-0.246,-0.246,-0.246,-0.2378,-0.2376,-0.2373,-0.2371,-0.2276,-0.2275,-0.2274,0,0,0,0,0,0,0,0,0,0,0,0,0,-0.2325,-0.2286,-0.2471,-0.243,-0.2426,-0.246,-0.246,-0.2459,-0.2379,-0.2376,-0.2373,-0.237,-0.2276,-0.2275,-0.2274,-0.2323,0,0,-0.227,-0.227,0,0,0,0,0,0,0,0,-0.2322,-0.2332,-0.2436,-0.2433,-0.2429,-0.2419,-0.2357,-0.241,-0.2379,-0.2395,-0.2372,-0.2369,-0.2319,-0.2314,-0.2317,-0.2318,-0.2314,-0.227,-0.2269,-0.2269,-0.2269,0,0,0,0,0,0,0,-0.2319,-0.2331,-0.2465,-0.2437,-0.2432,-0.2364,-0.2368,-0.2366,-0.237,-0.2394,-0.2388,-0.239,-0.2315,-0.2319,-0.2314,-0.2313,-0.227,-0.2269,-0.2268,-0.2268,-0.2313,-0.2314,0,0,0,0,0,0,-0.2336,-0.233,-0.2466,-0.2465,-0.2369,-0.237,-0.2375,-0.2424,-0.2372,-0.2362,-0.2392,-0.2386,-0.2322,-0.2316,-0.231,-0.235,-0.2269,-0.2268,-0.2267,-0.2311,-0.2313,-0.2315,0,0,0,0,0,0,-0.2333,-0.235,-0.2466,-0.2394,-0.2404,-0.2378,-0.2432,-0.2425,-0.2414,-0.2372,-0.236,-0.2387,-0.232,-0.2312,-0.231,-0.2345,-0.2267,-0.2266,-0.2308,-0.2311,-0.2314,-0.2438,0,0,0,0,0,0,-0.2328,-0.235,-0.2383,-0.2398,-0.2409,-0.2493,-0.2435,-0.2427,-0.2421,-0.2412,-0.2364,-0.2353,-0.2317,-0.2313,-0.2309,-0.2342,-0.2265,-0.2306,-0.231,-0.2313,-0.2431,-0.2444,-0.2456,0,0,0,0,0,-0.2322,-0.2383,-0.2387,-0.2402,-0.2461,-0.2495,-0.2495,-0.2462,-0.2423,-0.2437,-0.2401,-0.2354,-0.2332,-0.2314,-0.2309,-0.2342,-0.2304,-0.2309,-0.2313,-0.2426,-0.2442,-0.2455,0,0,0,0,0,0,-0.2296,-0.2382,-0.2385,-0.2464,-0.248,-0.2481,-0.2491,-0.2469,-0.2454,-0.2436,-0.2384,-0.2373,-0.2384,-0.2351,-0.2332,-0.2366,-0.2309,-0.2313,-0.2397,-0.2411,-0.2423,-0.2421,-0.2264,0,0,0,0,0,-0.2318,-0.2396,-0.2437,-0.2492,-0.2511,-0.2501,-0.2506,-0.2489,-0.2481,-0.247,-0.2438,-0.2409,-0.2405,-0.2396,-0.2384,-0.2409,-0.2395,-0.2426,-0.2438,-0.2449,-0.2444,-0.2451,-0.2463,-0.2329,-0.2329,-0.2329,0,0,-0.2309,-0.2374,-0.2407,-0.2493,-0.2502,-0.2546,-0.2497,-0.2517,-0.254,-0.2465,-0.2479,-0.2452,-0.2422,-0.2447,-0.2448,-0.2419,-0.2492,-0.2454,-0.2463,-0.2452,-0.2456,-0.2469,-0.2481,-0.2332,-0.2332,-0.2331,0,0,-0.2349,-0.2406,-0.2485,-0.2518,-0.2561,-0.2568,-0.2577,-0.2589,-0.2581,-0.2604,-0.2555,-0.2554,-0.2541,-0.2535,-0.2528,-0.2605,-0.2557,-0.2593,-0.2652,-0.2661,-0.2671,-0.268,-0.2733,-0.2746,-0.2598,-0.2598,-0.2598,0,-0.2329,-0.2452,-0.2498,-0.2576,-0.2598,-0.2585,-0.2637,-0.2649,-0.2649,-0.2653,-0.2619,-0.2618,-0.2591,-0.2626,-0.2644,-0.2634,-0.2633,-0.26,-0.2677,-0.2685,-0.2692,-0.2743,-0.2755,-0.2605,-0.2604,-0.2603,-0.2603,0,-0.2427,-0.2514,-0.2556,-0.2666,-0.2694,-0.2736,-0.2762,-0.2779,-0.2763,-0.2763,-0.2785,-0.2761,-0.2749,-0.2754,-0.2718,-0.2761,-0.2746,-0.2694,-0.264,-0.2713,-0.2763,-0.2774,-0.2614,-0.2611,-0.261,-0.2608,0,0,-0.2393,-0.2593,-0.2601,-0.2659,-0.2743,-0.2767,-0.2829,-0.2875,-0.2895,-0.2901,-0.293,-0.2935,-0.2896,-0.2885,-0.285,-0.2856,-0.2926,-0.2792,-0.2789,-0.2847,-0.2972,-0.2863,-0.2864,-0.2874,-0.2875,-0.2876,-0.3006,0,-0.2441,-0.2616,-0.2693,-0.279,-0.2862,-0.2884,-0.2937,-0.2967,-0.2978,-0.3005,-0.2997,-0.3003,-0.2956,-0.294,-0.2949,-0.2908,-0.2949,-0.2897,-0.2888,-0.289,-0.2784,-0.287,-0.2597,-0.2678,-0.3016,-0.3018,-0.3019,0,-0.2485,-0.2612,-0.2748,-0.2868,-0.2894,-0.294,-0.2995,-0.3041,-0.3087,-0.3089,-0.3105,-0.3084,-0.3105,-0.3041,-0.306,-0.302,-0.3011,-0.2995,-0.2999,-0.2849,-0.2797,-0.2647,-0.2683,-0.2521,-0.3035,-0.3033,-0.3032,0,-0.2426,-0.2613,-0.2728,-0.2772,-0.2921,-0.2956,-0.3002,-0.3057,-0.3086,-0.313,-0.3142,-0.3167,-0.3159,-0.3155,-0.3126,-0.3085,-0.3149,-0.3091,-0.3017,-0.3012,-0.2751,-0.2719,-0.2617,-0.3133,-0.3132,-0.3132,-0.3131,0,-0.2431,-0.2499,-0.2711,-0.2768,-0.2853,-0.294,-0.2998,-0.3041,-0.3105,-0.313,-0.3165,-0.3181,-0.3173,-0.3201,-0.3179,-0.3135,-0.3202,-0.3046,-0.303,-0.2792,-0.2763,-0.2583,-0.2603,-0.3137,-0.3136,-0.3135,-0.3134,0,-0.2313,-0.2475,-0.2601,-0.279,-0.2835,-0.2877,-0.2987,-0.3018,-0.3087,-0.3125,-0.3135,-0.3194,-0.3216,-0.3249,-0.3255,-0.3182,-0.3071,-0.315,-0.2896,-0.2845,-0.2555,-0.2594,-0.2623,-0.2575,-0.3067,-0.3065,-0.3063,0,-0.2276,-0.2345,-0.2577,-0.2638,-0.2718,-0.2809,-0.2858,-0.2975,-0.3011,-0.3116,-0.3121,-0.3187,-0.321,-0.3226,-0.308,-0.3058,-0.3045,-0.2814,-0.2668,-0.2513,-0.2547,-0.2622,-0.2587,-0.2414,-0.2407,-0.2401,-0.2397,0,-0.2168,-0.2257,-0.2361,-0.2512,-0.2598,-0.2702,-0.279,-0.2828,-0.2947,-0.3002,-0.3058,-0.3102,-0.3076,-0.287,-0.2828,-0.2784,-0.2644,-0.2695,-0.2571,-0.2063,-0.2102,-0.2052,-0.2414,-0.2346,-0.2351,-0.2355,-0.2358,-0.236,-0.2043,-0.208,-0.2228,-0.2329,-0.2445,-0.2543,-0.2551,-0.266,-0.2724,-0.2721,-0.2891,-0.2763,-0.255,-0.2403,-0.2403,-0.2048,-0.2319,-0.1901,-0.1987,-0.2099,-0.1953,-0.2234,-0.2109,-0.2113,-0.2116,-0.2119,-0.2121,0,-0.1885,-0.1934,-0.2024,-0.2159,-0.2193,-0.2331,-0.2446,-0.2399,-0.2407,-0.238,-0.2411,-0.1986,-0.1817,-0.1644,-0.1317,-0.1264,-0.1311,-0.1299,-0.128,-0.13,-0.1512,-0.1366,-0.1023,-0.1024,-0.1024,-0.1024,-0.1024,-0.1024,-0.1803,-0.1813,-0.1865,-0.1866,-0.1932,-0.1918,-0.1945,-0.1927,-0.1853,-0.1564,-0.1241,-0.1152,-0.094,-0.0846,-0.0692,-0.0724,-0.0767,-0.0811,-0.0992,-0.1007,-0.1067,-0.1124,-0.098,-0.0563,-0.0563,-0.061,-0.061,-0.061]},{"header":{"parameterUnit":"m.s-1","parameterCategory":2,"la1":30.2991,"la2":30.254,"lo1":-89.0895,"lo2":-89.0444,"dy":0.0017,"dx":0.0017,"nx":28,"ny":28,"refTime":"2024-05-28T03:00:00:Z","depth":"0","parameterNumber":3,"parameterNumberName":"V-component_of_CURRENTS"},"data":[0,0,0,0,0,0,0,0,0,0,0,0,0,0,0,0,0,0,0,0,0,0,0,0,0,0,0,0,0,0,0,0,0,0,0,0,0,0,0,0,0,0,0,0,0,0,0,0,0,0,0,0,0,0,0,0,0,0,-0.0738,-0.0738,0,-0.0733,-0.0733,-0.0733,-0.0715,-0.0715,-0.0715,-0.0715,-0.0691,-0.069,-0.069,0,0,0,0,0,0,0,0,0,0,0,0,0,-0.0519,-0.0525,-0.0738,-0.0738,-0.0739,-0.0733,-0.0733,-0.0733,-0.0715,-0.0715,-0.0715,-0.0714,-0.0691,-0.069,-0.069,0,0,0,0,0,0,0,0,0,0,0,0,0,-0.0572,-0.0526,-0.0738,-0.0732,-0.0731,-0.0733,-0.0733,-0.0732,-0.0715,-0.0715,-0.0715,-0.0714,-0.0691,-0.069,-0.069,-0.0687,0,0,-0.0687,-0.0687,0,0,0,0,0,0,0,0,-0.0569,-0.058,-0.0732,-0.0732,-0.0732,-0.0727,-0.0647,-0.0718,-0.0715,-0.0717,-0.0715,-0.0714,-0.0704,-0.0702,-0.0697,-0.0686,-0.0685,-0.0687,-0.0687,-0.0686,-0.0686,0,0,0,0,0,0,0,-0.0566,-0.0578,-0.0733,-0.0733,-0.0732,-0.0656,-0.0665,-0.0659,-0.0708,-0.0717,-0.0717,-0.0722,-0.0703,-0.0697,-0.0696,-0.0685,-0.0687,-0.0686,-0.0686,-0.0685,-0.0648,-0.0647,0,0,0,0,0,0,-0.0586,-0.0577,-0.0733,-0.0733,-0.0652,-0.0662,-0.0671,-0.0726,-0.0709,-0.0707,-0.0722,-0.0721,-0.0699,-0.0697,-0.0695,-0.07,-0.0686,-0.0685,-0.0685,-0.0648,-0.0647,-0.0647,0,0,0,0,0,0,-0.0582,-0.0602,-0.0733,-0.0653,-0.0665,-0.0668,-0.0728,-0.0726,-0.0724,-0.0713,-0.071,-0.0722,-0.0699,-0.0696,-0.0684,-0.0698,-0.0685,-0.0684,-0.0649,-0.0648,-0.0647,-0.0704,0,0,0,0,0,0,-0.0577,-0.0602,-0.0636,-0.0657,-0.0671,-0.0745,-0.0728,-0.0726,-0.0729,-0.0727,-0.0712,-0.071,-0.0698,-0.0685,-0.0683,-0.0697,-0.0684,-0.0649,-0.0648,-0.0647,-0.0703,-0.0705,-0.0707,0,0,0,0,0,-0.057,-0.0627,-0.064,-0.0657,-0.0726,-0.0747,-0.0746,-0.0741,-0.0729,-0.0735,-0.0713,-0.071,-0.0677,-0.0685,-0.0682,-0.0696,-0.065,-0.0649,-0.0647,-0.0702,-0.0705,-0.0707,0,0,0,0,0,0,-0.0539,-0.0632,-0.0645,-0.0727,-0.0738,-0.0745,-0.0752,-0.0744,-0.0732,-0.0727,-0.0707,-0.0704,-0.0695,-0.0681,-0.069,-0.0677,-0.0662,-0.066,-0.0704,-0.0706,-0.0709,-0.0752,-0.0683,0,0,0,0,0,-0.0555,-0.0632,-0.0675,-0.0733,-0.0747,-0.0747,-0.075,-0.0749,-0.0745,-0.0739,-0.0724,-0.0703,-0.0688,-0.0687,-0.0668,-0.0669,-0.0677,-0.0672,-0.0674,-0.0677,-0.0707,-0.072,-0.0728,-0.0643,-0.0643,-0.0643,0,0,-0.0549,-0.0615,-0.0651,-0.0731,-0.074,-0.0773,-0.0748,-0.0765,-0.0784,-0.0739,-0.0746,-0.071,-0.0686,-0.0682,-0.0678,-0.0676,-0.0701,-0.0675,-0.0678,-0.0708,-0.072,-0.0728,-0.0736,-0.0642,-0.0642,-0.0642,0,0,-0.0589,-0.0646,-0.0722,-0.0743,-0.0781,-0.0784,-0.0792,-0.0801,-0.0798,-0.0794,-0.0764,-0.0742,-0.0716,-0.071,-0.0701,-0.0706,-0.0707,-0.0686,-0.0747,-0.0758,-0.0766,-0.0773,-0.0789,-0.0798,-0.0695,-0.0695,-0.0695,0,-0.0574,-0.0698,-0.073,-0.0795,-0.082,-0.0796,-0.0848,-0.084,-0.0835,-0.0844,-0.0804,-0.0775,-0.0737,-0.0761,-0.0746,-0.0718,-0.0723,-0.0743,-0.0765,-0.0773,-0.078,-0.0794,-0.0803,-0.0698,-0.0698,-0.0697,-0.0697,0,-0.0672,-0.0752,-0.0788,-0.0883,-0.09,-0.0936,-0.0941,-0.0943,-0.092,-0.0913,-0.0913,-0.0858,-0.0848,-0.0818,-0.0779,-0.0808,-0.0795,-0.0764,-0.077,-0.0792,-0.0805,-0.0813,-0.0702,-0.0701,-0.07,-0.0699,0,0,-0.0688,-0.0837,-0.0848,-0.091,-0.0954,-0.0985,-0.101,-0.1045,-0.1077,-0.1032,-0.1078,-0.1009,-0.0972,-0.0959,-0.0909,-0.0907,-0.0928,-0.0856,-0.0855,-0.0893,-0.0962,-0.0829,-0.0825,-0.0901,-0.0903,-0.0904,-0.0951,0,-0.0753,-0.0915,-0.0957,-0.1056,-0.113,-0.112,-0.1157,-0.1168,-0.1153,-0.1178,-0.1128,-0.1128,-0.103,-0.1019,-0.1003,-0.0951,-0.0953,-0.092,-0.0917,-0.0918,-0.0814,-0.0831,-0.0692,-0.0711,-0.0959,-0.096,-0.0961,0,-0.0835,-0.0945,-0.1084,-0.1195,-0.1222,-0.126,-0.1322,-0.1347,-0.1359,-0.1346,-0.1332,-0.1283,-0.1268,-0.1173,-0.1131,-0.1113,-0.1046,-0.1002,-0.1002,-0.0872,-0.08,-0.0726,-0.0716,-0.048,-0.0973,-0.0972,-0.0971,0,-0.0869,-0.1019,-0.1147,-0.1182,-0.1298,-0.1342,-0.1377,-0.1402,-0.1444,-0.1451,-0.1474,-0.144,-0.143,-0.1355,-0.1221,-0.1184,-0.1183,-0.1121,-0.0954,-0.0945,-0.0825,-0.08,-0.0605,-0.1109,-0.1109,-0.1109,-0.1109,0,-0.0938,-0.1026,-0.1178,-0.1248,-0.1375,-0.141,-0.1514,-0.1529,-0.1577,-0.1645,-0.1562,-0.1608,-0.1471,-0.1432,-0.1304,-0.1155,-0.1246,-0.0982,-0.095,-0.0834,-0.0811,-0.0597,-0.0556,-0.1111,-0.111,-0.111,-0.111,0,-0.0949,-0.1057,-0.1206,-0.1359,-0.1406,-0.1487,-0.1605,-0.1675,-0.1692,-0.1781,-0.1787,-0.1755,-0.1684,-0.1545,-0.1434,-0.1254,-0.0998,-0.1059,-0.0927,-0.0875,-0.0437,-0.0407,-0.0342,-0.0223,-0.0876,-0.0873,-0.087,0,-0.098,-0.1069,-0.1278,-0.1374,-0.1447,-0.1572,-0.1665,-0.1726,-0.1799,-0.1875,-0.1931,-0.1886,-0.1844,-0.1622,-0.1304,-0.1061,-0.0939,-0.0774,-0.0651,-0.0399,-0.0345,-0.0373,-0.0281,-0.0527,-0.0522,-0.0517,-0.0514,0,-0.1018,-0.1094,-0.1215,-0.1421,-0.155,-0.1705,-0.1832,-0.1912,-0.1988,-0.204,-0.2104,-0.2076,-0.1815,-0.1445,-0.107,-0.0908,-0.0585,-0.0675,-0.0458,-0.0092,-0.0077,0.0051,-0.0522,-0.0477,-0.048,-0.0483,-0.0485,-0.0487,-0.1022,-0.1109,-0.1278,-0.1449,-0.1614,-0.1799,-0.188,-0.1996,-0.21,-0.2084,-0.2125,-0.1873,-0.1419,-0.0853,-0.0704,-0.0136,-0.0305,0.0077,0.0073,0.0007,0.0193,-0.0286,-0.016,-0.0162,-0.0164,-0.0165,-0.0166,0,-0.1041,-0.1139,-0.1298,-0.1516,-0.1667,-0.1762,-0.196,-0.1982,-0.2051,-0.19,-0.1835,-0.1132,-0.067,-0.0219,0.0434,0.0657,0.0644,0.0731,0.0742,0.0789,0.0359,0.0462,0.0783,0.0782,0.0782,0.0782,0.0782,0.0781,-0.1058,-0.1189,-0.127,-0.1497,-0.1632,-0.1782,-0.1866,-0.1882,-0.1749,-0.1332,-0.081,-0.0458,0.0148,0.0738,0.1258,0.129,0.142,0.1329,0.137,0.1137,0.1077,0.102,0.1136,0.1592,0.1593,0.1855,0.1858,0.186]}],[{"header":{"parameterUnit":"m.s-1","parameterCategory":2,"la1":30.2991,"la2":30.254,"lo1":-89.0895,"lo2":-89.0444,"dy":0.0017,"dx":0.0017,"nx":28,"ny":28,"refTime":"2024-05-28T03:00:00:Z","depth":"2","parameterNumber":2,"parameterNumberName":"U-component_of_CURRENTS"},"data":[0,0,0,0,0,0,0,0,0,0,0,0,0,0,0,0,0,0,0,0,0,0,0,0,0,0,0,0,0,0,0,0,0,0,0,0,0,0,0,0,0,0,0,0,0,0,0,0,0,0,0,0,0,0,0,0,0,0,-0.1145,-0.1145,0,-0.1243,-0.1245,-0.1247,-0.132,-0.1319,-0.1319,-0.1319,-0.1313,-0.1313,-0.1313,0,0,0,0,0,0,0,0,0,0,0,0,0,-0.1248,-0.1245,-0.1145,-0.1145,-0.1146,-0.1243,-0.1245,-0.1247,-0.132,-0.1319,-0.1319,-0.1319,-0.1313,-0.1313,-0.1313,0,0,0,0,0,0,0,0,0,0,0,0,0,-0.1268,-0.1244,-0.1145,-0.1188,-0.1192,-0.1243,-0.1245,-0.1248,-0.132,-0.1319,-0.1319,-0.1319,-0.1313,-0.1313,-0.1313,-0.1316,0,0,-0.1313,-0.1313,0,0,0,0,0,0,0,0,-0.1266,-0.1265,-0.1181,-0.1185,-0.1189,-0.1262,-0.1279,-0.1262,-0.132,-0.128,-0.1319,-0.1319,-0.1281,-0.1284,-0.1316,-0.1315,-0.1315,-0.1313,-0.1313,-0.1313,-0.1313,0,0,0,0,0,0,0,-0.1265,-0.1262,-0.1192,-0.1181,-0.1186,-0.128,-0.1281,-0.1279,-0.1284,-0.1283,-0.1287,-0.1285,-0.1284,-0.1316,-0.1315,-0.1315,-0.1313,-0.1313,-0.1313,-0.1312,-0.1336,-0.1337,0,0,0,0,0,0,-0.1223,-0.1259,-0.1189,-0.1194,-0.1219,-0.1276,-0.1279,-0.1245,-0.1287,-0.1292,-0.1285,-0.1288,-0.1316,-0.1315,-0.1315,-0.1337,-0.1313,-0.1312,-0.1312,-0.1335,-0.1336,-0.1337,0,0,0,0,0,0,-0.1225,-0.1215,-0.1185,-0.1226,-0.1227,-0.1272,-0.1236,-0.1247,-0.1294,-0.1288,-0.1292,-0.132,-0.1316,-0.1315,-0.1334,-0.1335,-0.1312,-0.1312,-0.1335,-0.1336,-0.1337,-0.1367,0,0,0,0,0,0,-0.1227,-0.1214,-0.1205,-0.1221,-0.1222,-0.122,-0.1236,-0.1249,-0.1288,-0.1294,-0.1319,-0.1318,-0.1316,-0.1335,-0.1334,-0.1335,-0.1312,-0.1334,-0.1335,-0.1336,-0.1366,-0.1369,-0.1373,0,0,0,0,0,-0.123,-0.1211,-0.1203,-0.1196,-0.1196,-0.122,-0.1232,-0.1271,-0.129,-0.1314,-0.1336,-0.1318,-0.1342,-0.1336,-0.1335,-0.1335,-0.1333,-0.1335,-0.1336,-0.1364,-0.1369,-0.1373,0,0,0,0,0,0,-0.1267,-0.1216,-0.1208,-0.1178,-0.1196,-0.1229,-0.125,-0.1281,-0.1324,-0.1331,-0.1334,-0.1335,-0.1357,-0.1342,-0.1336,-0.1347,-0.1331,-0.1332,-0.1352,-0.1357,-0.136,-0.1354,-0.1312,0,0,0,0,0,-0.126,-0.1227,-0.121,-0.1197,-0.1189,-0.1225,-0.1248,-0.1275,-0.1301,-0.1324,-0.1355,-0.1365,-0.1362,-0.1357,-0.137,-0.137,-0.1411,-0.1368,-0.1372,-0.1375,-0.1371,-0.1426,-0.1434,-0.1342,-0.1342,-0.1342,0,0,-0.1277,-0.1243,-0.123,-0.1204,-0.1214,-0.1243,-0.1241,-0.127,-0.1311,-0.1309,-0.1388,-0.1392,-0.1371,-0.1386,-0.139,-0.137,-0.1438,-0.1377,-0.1379,-0.1373,-0.1428,-0.1437,-0.1446,-0.1343,-0.1343,-0.1343,0,0,-0.1293,-0.1248,-0.1229,-0.1242,-0.1245,-0.127,-0.1277,-0.1323,-0.1345,-0.1403,-0.1408,-0.1414,-0.1442,-0.1423,-0.1407,-0.1433,-0.1468,-0.1435,-0.1431,-0.1485,-0.1493,-0.1501,-0.1632,-0.1651,-0.1419,-0.1419,-0.1419,0,-0.1315,-0.1282,-0.1242,-0.1244,-0.1256,-0.1281,-0.13,-0.1337,-0.1406,-0.1408,-0.1429,-0.1463,-0.1454,-0.1425,-0.1437,-0.1438,-0.1508,-0.1415,-0.1491,-0.1498,-0.1506,-0.1638,-0.1658,-0.1421,-0.1421,-0.1421,-0.1421,0,-0.132,-0.1318,-0.1312,-0.131,-0.1325,-0.1349,-0.1364,-0.1402,-0.1437,-0.1477,-0.1488,-0.1488,-0.1491,-0.1487,-0.1468,-0.149,-0.1543,-0.1506,-0.1481,-0.1517,-0.1655,-0.1675,-0.1423,-0.1423,-0.1422,-0.1422,0,0,-0.13,-0.1308,-0.131,-0.132,-0.1356,-0.1363,-0.14,-0.142,-0.1441,-0.1502,-0.1527,-0.151,-0.1515,-0.1497,-0.1472,-0.1501,-0.1633,-0.1525,-0.1527,-0.1661,-0.1833,-0.1595,-0.1596,-0.1617,-0.1619,-0.1621,-0.1934,0,-0.1319,-0.1325,-0.1329,-0.1382,-0.1386,-0.1402,-0.1434,-0.1462,-0.1491,-0.1546,-0.1515,-0.1549,-0.1513,-0.1511,-0.1536,-0.1626,-0.1678,-0.1556,-0.1773,-0.1781,-0.1566,-0.1605,-0.1375,-0.1606,-0.1955,-0.1958,-0.196,0,-0.1319,-0.1321,-0.1351,-0.1377,-0.1374,-0.1426,-0.1433,-0.1469,-0.1516,-0.1525,-0.1536,-0.1564,-0.1614,-0.1574,-0.1736,-0.1673,-0.1749,-0.181,-0.1823,-0.159,-0.1575,-0.1612,-0.1631,-0.1995,-0.1992,-0.199,-0.1987,0,-0.1309,-0.1334,-0.1352,-0.1372,-0.1418,-0.1419,-0.1441,-0.147,-0.1478,-0.1532,-0.1559,-0.1624,-0.1702,-0.1774,-0.1884,-0.1844,-0.2092,-0.2052,-0.1914,-0.1906,-0.1737,-0.1703,-0.2146,-0.2145,-0.2145,-0.2144,-0.2143,0,-0.1325,-0.1344,-0.1353,-0.1387,-0.1376,-0.1413,-0.1429,-0.143,-0.1487,-0.1541,-0.1555,-0.1603,-0.1759,-0.1897,-0.1956,-0.2008,-0.2156,-0.1925,-0.1941,-0.1744,-0.1709,-0.2039,-0.2023,-0.2156,-0.2153,-0.2151,-0.2149,0,-0.1328,-0.1352,-0.1363,-0.1389,-0.1386,-0.1375,-0.1402,-0.1434,-0.1466,-0.1541,-0.1567,-0.1696,-0.1839,-0.1951,-0.2158,-0.2103,-0.2165,-0.2134,-0.1918,-0.1892,-0.1954,-0.1936,-0.2045,-0.2039,-0.2033,-0.2029,-0.2025,0,-0.1326,-0.1347,-0.134,-0.1328,-0.1346,-0.1344,-0.1363,-0.1405,-0.1436,-0.1579,-0.1617,-0.1785,-0.1811,-0.1978,-0.1923,-0.1959,-0.2095,-0.1796,-0.1582,-0.1924,-0.1932,-0.1922,-0.1912,-0.147,-0.1462,-0.1455,-0.145,0,-0.1309,-0.1314,-0.1318,-0.129,-0.1301,-0.13,-0.1327,-0.134,-0.1449,-0.1504,-0.1626,-0.1667,-0.1717,-0.1606,-0.1579,-0.1565,-0.1746,-0.1648,-0.2124,-0.1439,-0.1379,-0.1386,-0.1397,-0.1391,-0.1397,-0.1401,-0.1405,-0.1407,-0.1267,-0.1248,-0.1251,-0.1217,-0.1235,-0.1248,-0.1213,-0.1283,-0.1324,-0.136,-0.1521,-0.146,-0.1453,-0.1176,-0.1169,-0.1155,-0.1254,-0.1239,-0.1264,-0.1294,-0.1078,-0.1,-0.0912,-0.0915,-0.0918,-0.092,-0.0922,0,-0.1183,-0.1188,-0.1169,-0.1134,-0.1135,-0.1163,-0.1183,-0.1134,-0.1147,-0.1166,-0.119,-0.1004,-0.0834,-0.0859,-0.066,-0.0613,-0.0659,-0.0663,-0.0734,-0.0786,-0.0835,-0.06,-0.0308,-0.0307,-0.0306,-0.0306,0,0,-0.114,-0.1098,-0.1094,-0.1031,-0.1027,-0.0974,-0.0959,-0.0909,-0.0838,-0.0762,-0.0685,-0.0664,-0.0672,-0.0444,-0.041,-0.0328,-0.0561,-0.0302,-0.077,-0.0894,-0.0942,-0.1115,-0.0801,0,0,0,0,0]},{"header":{"parameterUnit":"m.s-1","parameterCategory":2,"la1":30.2991,"la2":30.254,"lo1":-89.0895,"lo2":-89.0444,"dy":0.0017,"dx":0.0017,"nx":28,"ny":28,"refTime":"2024-05-28T03:00:00:Z","depth":"2","parameterNumber":3,"parameterNumberName":"V-component_of_CURRENTS"},"data":[0,0,0,0,0,0,0,0,0,0,0,0,0,0,0,0,0,0,0,0,0,0,0,0,0,0,0,0,0,0,0,0,0,0,0,0,0,0,0,0,0,0,0,0,0,0,0,0,0,0,0,0,0,0,0,0,0,0,0.0127,0.0127,0,0.0251,0.0253,0.0255,0.036,0.036,0.036,0.036,0.0522,0.0526,0.053,0,0,0,0,0,0,0,0,0,0,0,0,0,0.0039,0.0041,0.0127,0.0127,0.0128,0.025,0.0253,0.0256,0.036,0.036,0.036,0.0361,0.0521,0.0526,0.0531,0,0,0,0,0,0,0,0,0,0,0,0,0,0.0122,0.0042,0.0126,0.0187,0.0193,0.025,0.0253,0.0256,0.036,0.036,0.036,0.0361,0.0519,0.0525,0.0531,0.0564,0,0,0.055,0.0553,0,0,0,0,0,0,0,0,0.0117,0.0126,0.0177,0.0183,0.0189,0.0281,0.0281,0.0358,0.036,0.0308,0.036,0.0361,0.0438,0.0451,0.0488,0.0572,0.0579,0.0551,0.0555,0.0557,0.0559,0,0,0,0,0,0,0,0.0111,0.0121,0.0186,0.0178,0.0185,0.0227,0.024,0.0297,0.0378,0.0312,0.0317,0.0314,0.0443,0.0482,0.0492,0.0581,0.0551,0.0556,0.056,0.0562,0.075,0.0752,0,0,0,0,0,0,0.0071,0.0116,0.0182,0.0189,0.0141,0.0227,0.0242,0.026,0.0377,0.0392,0.0314,0.0318,0.0471,0.0485,0.0498,0.0529,0.0557,0.0563,0.0567,0.0749,0.0751,0.0752,0,0,0,0,0,0,0.0069,0.0077,0.0177,0.0146,0.016,0.0227,0.0247,0.0262,0.0294,0.0376,0.0394,0.0328,0.0472,0.049,0.0576,0.0536,0.0566,0.0571,0.0748,0.075,0.0751,0.0598,0,0,0,0,0,0,0.0067,0.0076,0.0077,0.0143,0.016,0.0192,0.0246,0.0264,0.0287,0.0295,0.0394,0.041,0.0473,0.0567,0.0582,0.0545,0.0576,0.0746,0.0749,0.0751,0.0602,0.0595,0.0589,0,0,0,0,0,0.0064,0.0068,0.0077,0.0085,0.016,0.019,0.0203,0.0259,0.0286,0.0293,0.039,0.0407,0.0592,0.0573,0.0591,0.0554,0.0745,0.0748,0.0751,0.0605,0.0596,0.0589,0,0,0,0,0,0,0.0036,0.0079,0.0092,0.011,0.0131,0.0203,0.0218,0.0247,0.0329,0.0347,0.0434,0.0458,0.0526,0.0575,0.0552,0.0625,0.0666,0.0673,0.0549,0.0542,0.0536,0.0508,0.0581,0,0,0,0,0,0.0022,0.0032,0.0074,0.0079,0.0096,0.0152,0.0172,0.0203,0.0275,0.0311,0.0383,0.0472,0.0553,0.0574,0.0666,0.069,0.074,0.0682,0.0675,0.0669,0.0665,0.0736,0.0733,0.0762,0.0762,0.0761,0,0,0.0002,0.003,0.0031,0.0071,0.0107,0.0125,0.0169,0.0191,0.0205,0.0315,0.0378,0.0465,0.0569,0.0621,0.0649,0.0646,0.0684,0.0673,0.0665,0.0665,0.0738,0.0735,0.0732,0.0764,0.0763,0.0763,0,0,-0.0026,0.0004,0.0006,0.0026,0.0056,0.0095,0.0091,0.0156,0.0188,0.0245,0.0343,0.0402,0.0516,0.057,0.0614,0.0624,0.0671,0.065,0.0556,0.0623,0.062,0.0618,0.0642,0.0643,0.0614,0.0613,0.0613,0,-0.0049,-0.0038,0.0005,0.0016,0.0027,0.0075,0.0078,0.0116,0.0196,0.0224,0.0248,0.0427,0.0485,0.055,0.0548,0.0598,0.0648,0.0561,0.0608,0.0608,0.0608,0.0634,0.0637,0.0606,0.0607,0.0608,0.0609,0,-0.007,-0.0066,-0.0061,-0.0029,-0.001,-0.0005,0.0042,0.0069,0.0108,0.0149,0.0227,0.0324,0.0418,0.0431,0.0484,0.0514,0.0552,0.0608,0.0608,0.0595,0.0624,0.063,0.0596,0.0599,0.0601,0.0603,0,0,-0.0104,-0.0081,-0.0081,-0.0084,-0.0036,-0.0024,0.0,0.0037,0.0056,0.0115,0.0148,0.0241,0.0287,0.0343,0.0407,0.043,0.044,0.0497,0.0504,0.0483,0.0569,0.0613,0.0625,0.0512,0.0513,0.0514,0.0573,0,-0.0135,-0.0138,-0.0112,-0.0124,-0.0119,-0.0072,-0.0053,-0.0015,0.0031,0.0078,0.0143,0.0213,0.0254,0.0286,0.032,0.0439,0.0458,0.0417,0.0619,0.0624,0.0635,0.0635,0.0558,0.0608,0.058,0.0581,0.0582,0,-0.0163,-0.016,-0.0181,-0.017,-0.0161,-0.0161,-0.0119,-0.0099,-0.0027,0.0011,0.0073,0.0152,0.0198,0.0242,0.0379,0.036,0.0447,0.0518,0.0524,0.0627,0.0682,0.0631,0.0622,0.0593,0.0592,0.0591,0.059,0,-0.0221,-0.021,-0.0234,-0.0231,-0.0205,-0.0207,-0.0185,-0.0124,-0.0107,-0.0035,-0.0009,0.0091,0.0124,0.0259,0.0368,0.0395,0.0517,0.0583,0.07,0.0703,0.0709,0.0711,0.0687,0.0687,0.0686,0.0686,0.0686,0,-0.027,-0.0292,-0.0268,-0.0294,-0.0295,-0.0262,-0.0266,-0.0219,-0.0174,-0.0162,-0.0054,-0.0025,0.0134,0.0221,0.0353,0.0521,0.0508,0.0685,0.0731,0.0653,0.065,0.0709,0.0711,0.0688,0.0688,0.0688,0.0687,0,-0.0346,-0.0336,-0.0363,-0.0349,-0.0337,-0.0342,-0.0321,-0.0332,-0.0268,-0.0249,-0.0234,-0.0123,0.0012,0.0163,0.0354,0.0485,0.0651,0.0712,0.0581,0.0614,0.0798,0.0792,0.0887,0.089,0.0892,0.0893,0.0894,0,-0.0383,-0.0413,-0.041,-0.0415,-0.0417,-0.0416,-0.0428,-0.0383,-0.0381,-0.0312,-0.0306,-0.019,-0.0049,0.0233,0.0414,0.0653,0.068,0.0747,0.0806,0.0788,0.0824,0.0814,0.0806,0.0731,0.0731,0.0731,0.0731,0,-0.0451,-0.0461,-0.0483,-0.0495,-0.0515,-0.0522,-0.0523,-0.0527,-0.0488,-0.0441,-0.0358,-0.0235,0.0012,0.0257,0.0537,0.0663,0.0712,0.0761,0.0776,0.0705,0.0651,0.0682,0.0677,0.073,0.073,0.073,0.073,0.073,-0.0492,-0.052,-0.0551,-0.0559,-0.0591,-0.0615,-0.0626,-0.0616,-0.0591,-0.0481,-0.0371,-0.0118,0.0087,0.0541,0.0633,0.0704,0.0779,0.0854,0.085,0.0847,0.0832,0.0786,0.0884,0.0884,0.0885,0.0886,0.0887,0,-0.0526,-0.0567,-0.0598,-0.0622,-0.068,-0.067,-0.0685,-0.0674,-0.0642,-0.0448,-0.0284,0.0034,0.0342,0.0528,0.0646,0.0778,0.0714,0.079,0.0688,0.069,0.0692,0.0664,0.0674,0.0674,0.0673,0.0673,0,0,-0.0547,-0.0598,-0.0621,-0.069,-0.072,-0.078,-0.0792,-0.0741,-0.059,-0.039,-0.0149,0.0221,0.0471,0.0546,0.0617,0.0639,0.0629,0.0619,0.0782,0.0652,0.0652,0.0726,0.0688,0,0,0,0,0]}],[{"header":{"parameterUnit":"m.s-1","parameterCategory":2,"la1":30.2991,"la2":30.254,"lo1":-89.0895,"lo2":-89.0444,"dy":0.0017,"dx":0.0017,"nx":28,"ny":28,"refTime":"2024-05-28T03:00:00:Z","depth":"4","parameterNumber":2,"parameterNumberName":"U-component_of_CURRENTS"},"data":[0,0,0,0,0,0,0,0,0,0,0,0,0,0,0,0,0,0,0,0,0,0,0,0,0,0,0,0,0,0,0,0,0,0,0,0,0,0,0,0,0,0,0,0,0,0,0,0,0,0,0,0,0,0,0,0,0,0,-0.0851,-0.0851,0,-0.0878,-0.0878,-0.0878,-0.0885,-0.0885,-0.0885,-0.0885,-0.0874,-0.0873,-0.0873,0,0,0,0,0,0,0,0,0,0,0,0,0,-0.0775,-0.0777,-0.0851,-0.0851,-0.0852,-0.0878,-0.0878,-0.0878,-0.0885,-0.0885,-0.0885,-0.0885,-0.0874,-0.0873,-0.0873,0,0,0,0,0,0,0,0,0,0,0,0,0,-0.0803,-0.0777,-0.0851,-0.0861,-0.0862,-0.0878,-0.0878,-0.0878,-0.0885,-0.0885,-0.0885,-0.0885,-0.0874,-0.0873,-0.0873,-0.0865,0,0,-0.0871,-0.087,0,0,0,0,0,0,0,0,-0.0801,-0.0805,-0.0859,-0.086,-0.0862,-0.0881,-0.0848,-0.0873,-0.0885,-0.0873,-0.0885,-0.0886,-0.0875,-0.0874,-0.0874,-0.0864,-0.0864,-0.0871,-0.087,-0.087,-0.087,0,0,0,0,0,0,0,-0.0799,-0.0804,-0.0858,-0.086,-0.0862,-0.0855,-0.0859,-0.0852,-0.0869,-0.0874,-0.0875,-0.0884,-0.0875,-0.0875,-0.0874,-0.0864,-0.0871,-0.087,-0.087,-0.0869,-0.0886,-0.0887,0,0,0,0,0,0,-0.0804,-0.0802,-0.0857,-0.0859,-0.0835,-0.0856,-0.086,-0.0872,-0.087,-0.0871,-0.0883,-0.0884,-0.0876,-0.0875,-0.0874,-0.0912,-0.087,-0.0869,-0.0869,-0.0886,-0.0887,-0.0887,0,0,0,0,0,0,-0.0803,-0.0809,-0.0856,-0.0834,-0.084,-0.0858,-0.0871,-0.0873,-0.0882,-0.0878,-0.0878,-0.0892,-0.0876,-0.0875,-0.0881,-0.091,-0.0869,-0.0869,-0.0885,-0.0886,-0.0887,-0.0958,0,0,0,0,0,0,-0.08,-0.0808,-0.082,-0.0834,-0.0841,-0.087,-0.0871,-0.0873,-0.0888,-0.0889,-0.0885,-0.0884,-0.0876,-0.0883,-0.0881,-0.0908,-0.0868,-0.0884,-0.0885,-0.0887,-0.0955,-0.0962,-0.0968,0,0,0,0,0,-0.0798,-0.0809,-0.0821,-0.0828,-0.0857,-0.0871,-0.0873,-0.0884,-0.0888,-0.0893,-0.0896,-0.0885,-0.0891,-0.0883,-0.088,-0.0908,-0.0883,-0.0885,-0.0887,-0.0952,-0.096,-0.0968,0,0,0,0,0,0,-0.0784,-0.0812,-0.0825,-0.0845,-0.0862,-0.0874,-0.0881,-0.0889,-0.0896,-0.0898,-0.0892,-0.0891,-0.0906,-0.0894,-0.0885,-0.0917,-0.0886,-0.0888,-0.0937,-0.0945,-0.0951,-0.0953,-0.0867,0,0,0,0,0,-0.0788,-0.0803,-0.0828,-0.0845,-0.0854,-0.087,-0.0879,-0.0887,-0.0896,-0.0899,-0.0901,-0.0903,-0.091,-0.0917,-0.0912,-0.093,-0.0906,-0.0946,-0.0953,-0.0958,-0.0959,-0.0948,-0.0954,-0.0894,-0.0894,-0.0894,0,0,-0.079,-0.0805,-0.0817,-0.0843,-0.0856,-0.0873,-0.0875,-0.089,-0.0911,-0.0896,-0.092,-0.0919,-0.0917,-0.0939,-0.0945,-0.0936,-0.0964,-0.0961,-0.0966,-0.0963,-0.0951,-0.0957,-0.0962,-0.0895,-0.0895,-0.0895,0,0,-0.0789,-0.0814,-0.0822,-0.0839,-0.0862,-0.0877,-0.0885,-0.0904,-0.092,-0.0941,-0.0942,-0.0959,-0.0964,-0.0979,-0.0985,-0.1021,-0.0991,-0.1022,-0.1068,-0.1059,-0.1064,-0.1067,-0.1047,-0.1049,-0.1035,-0.1035,-0.1035,0,-0.0792,-0.0808,-0.0827,-0.0839,-0.086,-0.0881,-0.09,-0.0919,-0.0941,-0.0962,-0.0955,-0.0985,-0.0985,-0.1026,-0.1046,-0.1037,-0.102,-0.1042,-0.1068,-0.1071,-0.1074,-0.1052,-0.1053,-0.1039,-0.1038,-0.1038,-0.1038,0,-0.079,-0.0813,-0.0819,-0.0848,-0.0873,-0.0889,-0.0928,-0.0956,-0.0979,-0.0999,-0.1038,-0.1042,-0.1062,-0.1075,-0.1075,-0.111,-0.1086,-0.107,-0.1049,-0.1084,-0.1059,-0.1059,-0.1044,-0.1043,-0.1041,-0.1041,0,0,-0.0776,-0.0811,-0.0815,-0.0839,-0.0881,-0.0904,-0.0952,-0.1001,-0.1038,-0.1061,-0.1101,-0.1133,-0.1137,-0.1144,-0.115,-0.1158,-0.1171,-0.1134,-0.1131,-0.1116,-0.1143,-0.1088,-0.1081,-0.1161,-0.1162,-0.1162,-0.1118,0,-0.0771,-0.0792,-0.0817,-0.0861,-0.0884,-0.0933,-0.0981,-0.1033,-0.107,-0.111,-0.1136,-0.1161,-0.1164,-0.1178,-0.119,-0.1171,-0.1173,-0.1184,-0.1109,-0.1107,-0.1055,-0.108,-0.1163,-0.1118,-0.1118,-0.1118,-0.1117,0,-0.076,-0.0782,-0.0812,-0.0885,-0.0901,-0.0936,-0.1025,-0.1067,-0.1133,-0.116,-0.1197,-0.1203,-0.1234,-0.1215,-0.1209,-0.1216,-0.1187,-0.1168,-0.1166,-0.1087,-0.105,-0.1074,-0.1116,-0.1116,-0.1116,-0.1116,-0.1116,0,-0.0737,-0.0785,-0.0811,-0.0831,-0.0909,-0.0952,-0.1003,-0.1083,-0.1121,-0.1184,-0.1201,-0.1238,-0.1235,-0.1226,-0.1198,-0.1202,-0.1166,-0.116,-0.1082,-0.1077,-0.1108,-0.1104,-0.1142,-0.1142,-0.1142,-0.1142,-0.1142,0,-0.0721,-0.0752,-0.0805,-0.0822,-0.0881,-0.0945,-0.1012,-0.1071,-0.1136,-0.1161,-0.1216,-0.1217,-0.1234,-0.1217,-0.12,-0.1136,-0.1163,-0.1088,-0.1064,-0.1139,-0.1139,-0.1107,-0.1104,-0.1141,-0.1141,-0.1141,-0.1141,0,-0.0696,-0.0725,-0.0764,-0.0838,-0.0868,-0.0913,-0.1006,-0.1048,-0.1115,-0.1143,-0.1156,-0.1191,-0.1162,-0.1169,-0.1135,-0.1114,-0.1076,-0.1042,-0.1117,-0.1098,-0.0992,-0.0993,-0.0955,-0.0952,-0.095,-0.0949,-0.0948,0,-0.0683,-0.0694,-0.0757,-0.0787,-0.0823,-0.0893,-0.0941,-0.1028,-0.1056,-0.1106,-0.1101,-0.1097,-0.1106,-0.1011,-0.1038,-0.1005,-0.0993,-0.0982,-0.1001,-0.0993,-0.0974,-0.0978,-0.0981,-0.0944,-0.0944,-0.0943,-0.0943,0,-0.0659,-0.0675,-0.0703,-0.0751,-0.08,-0.0854,-0.0918,-0.0923,-0.0996,-0.1055,-0.1007,-0.0993,-0.0955,-0.094,-0.0921,-0.0902,-0.1005,-0.0962,-0.0966,-0.0983,-0.0981,-0.0964,-0.097,-0.0936,-0.0937,-0.0938,-0.0938,0,-0.0634,-0.0645,-0.0669,-0.0714,-0.0769,-0.0794,-0.0837,-0.0853,-0.0882,-0.0926,-0.0894,-0.0895,-0.0912,-0.0883,-0.0867,-0.085,-0.0843,-0.0839,-0.0849,-0.0857,-0.0852,-0.0836,-0.0725,0,0,0,0,0,-0.0601,-0.0608,-0.0638,-0.0677,-0.0725,-0.0751,-0.0814,-0.0851,-0.0896,-0.0833,-0.0862,-0.082,-0.0789,-0.08,-0.0761,-0.0849,-0.0865,-0.0807,-0.0869,-0.0899,-0.0907,-0.0915,0,0,0,0,0,0,-0.0579,-0.0601,-0.0613,-0.0629,-0.0644,-0.0689,-0.0717,-0.0751,-0.0724,-0.0762,-0.0737,-0.0782,-0.0756,-0.0777,-0.0739,-0.0748,-0.0778,-0.0821,-0.0819,-0.0895,-0.0902,-0.0908,-0.0919,0,0,0,0,0]},{"header":{"parameterUnit":"m.s-1","parameterCategory":2,"la1":30.2991,"la2":30.254,"lo1":-89.0895,"lo2":-89.0444,"dy":0.0017,"dx":0.0017,"nx":28,"ny":28,"refTime":"2024-05-28T03:00:00:Z","depth":"4","parameterNumber":3,"parameterNumberName":"V-component_of_CURRENTS"},"data":[0,0,0,0,0,0,0,0,0,0,0,0,0,0,0,0,0,0,0,0,0,0,0,0,0,0,0,0,0,0,0,0,0,0,0,0,0,0,0,0,0,0,0,0,0,0,0,0,0,0,0,0,0,0,0,0,0,0,0.012,0.0121,0,0.0119,0.0119,0.0118,0.0119,0.0119,0.0119,0.0119,0.0056,0.0054,0.0052,0,0,0,0,0,0,0,0,0,0,0,0,0,0.0084,0.0084,0.012,0.0121,0.0121,0.0119,0.0119,0.0118,0.0119,0.0119,0.0119,0.012,0.0056,0.0054,0.0052,0,0,0,0,0,0,0,0,0,0,0,0,0,0.0091,0.0085,0.012,0.0122,0.0122,0.0119,0.0119,0.0118,0.0119,0.0119,0.0119,0.012,0.0057,0.0054,0.0052,0.0028,0,0,0.0043,0.0042,0,0,0,0,0,0,0,0,0.0091,0.0092,0.0122,0.0122,0.0122,0.0121,0.0082,0.0086,0.0119,0.0118,0.0119,0.012,0.0073,0.0069,0.0066,0.0025,0.0023,0.0043,0.0041,0.004,0.0039,0,0,0,0,0,0,0,0.009,0.0092,0.0118,0.0122,0.0122,0.0109,0.0111,0.0083,0.0091,0.0118,0.0119,0.0121,0.0072,0.0069,0.0064,0.0022,0.0043,0.004,0.0039,0.0038,-0.0022,-0.0021,0,0,0,0,0,0,0.0096,0.0092,0.0118,0.0118,0.0109,0.011,0.0111,0.012,0.0093,0.009,0.0121,0.0121,0.0074,0.0068,0.0062,0.0066,0.004,0.0037,0.0036,-0.0022,-0.0022,-0.0021,0,0,0,0,0,0,0.0095,0.0099,0.0118,0.0106,0.0108,0.0111,0.0119,0.0119,0.0119,0.0096,0.0092,0.0121,0.0074,0.0066,0.0045,0.0062,0.0036,0.0033,-0.0022,-0.0022,-0.0021,0.0051,0,0,0,0,0,0,0.0094,0.0098,0.0103,0.0107,0.0109,0.0113,0.0119,0.0119,0.0121,0.0121,0.0094,0.0089,0.0073,0.005,0.0042,0.0058,0.0031,-0.0022,-0.0022,-0.0022,0.0049,0.0054,0.0058,0,0,0,0,0,0.0093,0.0097,0.0103,0.0106,0.0116,0.0113,0.0112,0.0114,0.012,0.0115,0.0106,0.009,0.0046,0.0047,0.0039,0.0054,-0.0022,-0.0022,-0.0022,0.0047,0.0053,0.0058,0,0,0,0,0,0,0.0079,0.0098,0.0104,0.0113,0.0113,0.0114,0.0112,0.0114,0.0104,0.0105,0.0087,0.0081,0.007,0.0045,0.0047,0.0036,0.001,0.0009,0.0065,0.007,0.0075,0.0079,0.0029,0,0,0,0,0,0.008,0.0091,0.01,0.0105,0.0108,0.0111,0.011,0.0111,0.0105,0.0102,0.0086,0.0071,0.0063,0.0054,0.0033,0.0022,0.004,0.0025,0.003,0.0034,0.0031,0.0096,0.0107,-0.0021,-0.0021,-0.0021,0,0,0.0071,0.0087,0.009,0.0103,0.0106,0.0097,0.0111,0.011,0.0104,0.0094,0.008,0.0081,0.0062,0.0059,0.0051,0.0041,0.0081,0.0035,0.0039,0.0033,0.0097,0.011,0.0122,-0.002,-0.002,-0.002,0,0,0.0057,0.0079,0.008,0.0078,0.0086,0.0089,0.009,0.0091,0.0097,0.0082,0.009,0.011,0.0064,0.0086,0.0084,0.0099,0.0103,0.0081,0.0112,0.0176,0.0188,0.0199,0.0251,0.0266,0.0086,0.0087,0.0087,0,0.0047,0.0051,0.0075,0.007,0.0067,0.0085,0.0071,0.0078,0.0071,0.0088,0.0077,0.0091,0.0084,0.012,0.013,0.0115,0.014,0.0098,0.0187,0.0198,0.0207,0.0258,0.0274,0.009,0.009,0.0089,0.0089,0,0.0029,0.0026,0.0026,0.0029,0.0029,0.0021,0.0035,0.0044,0.0055,0.007,0.0104,0.0119,0.0132,0.0143,0.0137,0.0206,0.0199,0.019,0.0182,0.0226,0.0275,0.029,0.0095,0.0094,0.0093,0.0092,0,0,0.0016,0.0013,0.0012,0.0003,0.0008,0.0006,0.0014,0.0036,0.0059,0.0076,0.0115,0.0144,0.0177,0.0178,0.0201,0.0263,0.0369,0.0254,0.0256,0.0322,0.0506,0.0423,0.0432,0.0379,0.0382,0.0384,0.0519,0,-0.0008,-0.0027,-0.0018,-0.0045,-0.0057,-0.0033,-0.0026,0.0001,0.0033,0.0074,0.0142,0.0171,0.0183,0.0206,0.0275,0.0333,0.0408,0.0332,0.0437,0.044,0.0376,0.0446,0.0392,0.053,0.0533,0.0536,0.0538,0,-0.003,-0.0039,-0.0067,-0.0073,-0.0072,-0.0083,-0.0045,-0.0037,0.0037,0.0067,0.0136,0.0178,0.0274,0.0274,0.0426,0.0374,0.0444,0.0499,0.0505,0.0409,0.0385,0.0471,0.0564,0.0562,0.056,0.0558,0.0557,0,-0.005,-0.0071,-0.009,-0.0098,-0.0102,-0.0097,-0.009,-0.0035,-0.0008,0.0072,0.011,0.0215,0.0276,0.0378,0.0479,0.0461,0.0642,0.0633,0.0635,0.063,0.0632,0.0619,0.0758,0.0758,0.0758,0.0757,0.0757,0,-0.0078,-0.0098,-0.0103,-0.0121,-0.0131,-0.0121,-0.0109,-0.0079,-0.0018,0.0036,0.0107,0.0183,0.0307,0.0417,0.0501,0.0605,0.0666,0.0653,0.0665,0.0658,0.0647,0.0644,0.0629,0.0762,0.0761,0.076,0.0759,0,-0.0107,-0.0111,-0.0139,-0.0147,-0.0148,-0.0155,-0.0141,-0.0121,-0.0062,0.0014,0.0043,0.0179,0.0309,0.0422,0.0596,0.0628,0.0735,0.0761,0.0748,0.0754,0.0679,0.0666,0.0784,0.0782,0.078,0.0779,0.0778,0,-0.0125,-0.0143,-0.0162,-0.0177,-0.0187,-0.0194,-0.0193,-0.0151,-0.0122,0.0025,0.0067,0.021,0.0302,0.049,0.0592,0.0729,0.0737,0.0788,0.0734,0.0685,0.0685,0.0674,0.0663,0.0776,0.0776,0.0775,0.0775,0,-0.0164,-0.0167,-0.0188,-0.0217,-0.023,-0.0238,-0.0229,-0.0208,-0.0125,-0.0059,0.0102,0.0218,0.0357,0.0484,0.0574,0.0679,0.0745,0.0774,0.0777,0.0727,0.0677,0.0676,0.0667,0.077,0.0771,0.0771,0.0772,0,-0.0186,-0.0209,-0.0231,-0.0257,-0.0274,-0.0275,-0.0266,-0.0209,-0.0163,0.0001,0.0067,0.0238,0.0356,0.0462,0.0563,0.0623,0.0634,0.0646,0.0656,0.0663,0.0558,0.0473,0.053,0,0,0,0,0,-0.0206,-0.0238,-0.027,-0.0295,-0.031,-0.032,-0.0284,-0.026,-0.0166,-0.0062,0.0002,0.0139,0.0307,0.0398,0.0444,0.0498,0.0612,0.0549,0.0622,0.0743,0.0749,0.0635,0,0,0,0,0,0,-0.022,-0.0257,-0.028,-0.0321,-0.0348,-0.0358,-0.0341,-0.0275,-0.0215,-0.0096,-0.0008,0.011,0.0259,0.0266,0.043,0.0456,0.05,0.0646,0.0647,0.074,0.0745,0.0749,0.0635,0,0,0,0,0]}]]